Location: Владивосток
(43.1151°N, 131.8856°E)
Time: 23:59:09
(UTC+10:00)

SPROUT - Pass Details

Date: 05 July 2022
Orbit: 588 x 598 km, 97.9° (Epoch: 08 August)

Event Time Altitude Azimuth Distance (km) Brightness Sun altitude
Exits shadow 02:56:15 23° 273° (W) 1,278 ? -20.2°
Drops below altitude 10° 02:59:16 10° 319° (NW) 1,924 ? -20.0°
Sets 03:01:49 0° 334° (NNW) 2,832 ? -19.8°
